Simultaneous Nadir Overpasses (SNOs) Predictions

Prediction of SNOs between TERRA and METOP-C Satellite Orbit:

Table of predicted SNOs for the next 14.0 days since TLE Epoch: 4/11/2020
Index Date (TERRA) Time (TERRA) Lat,Lon (TERRA) SZA (TERRA ) Date (METOP-C) Time (METOP-C) Lat,Lon (METOP-C) SZA (METOP-C ) Distance(km) Time Diff (sec)
1 04/13/2020 20:16:47 81.29, -76.95 74.68 04/13/2020 20:16:14 81.30, -76.83 74.68 2.05 33
2 04/13/2020 21:06:13 -81.31, 90.97 105.30 04/13/2020 21:06:53 -81.30, 90.91 105.29 1.23 40
3 04/16/2020 15:51:00 81.30, -10.48 73.71 04/16/2020 15:50:37 81.30, -10.36 73.71 2.06 23
4 04/16/2020 16:40:26 -81.31, 157.47 106.26 04/16/2020 16:41:16 -81.31, 157.42 106.25 1.15 50
5 04/19/2020 11:25:12 81.30, 55.96 72.75 04/19/2020 11:24:59 81.30, 56.11 72.76 2.65 13
6 04/19/2020 12:14:38 -81.31,-136.08 107.22 04/19/2020 12:15:38 -81.31,-136.07 107.19 0.71 60
7 04/22/2020 06:59:25 81.29, 122.34 71.81 04/22/2020 06:59:23 81.30, 122.17 71.79 2.93 2
8 04/22/2020 07:48:51 -81.31, -69.67 108.16 04/22/2020 07:50:01 -81.31, -69.58 108.11 1.59 70
9 04/25/2020 01:44:11 -81.31, 21.40 109.06 04/25/2020 01:43:05 -81.29, 21.23 109.11 3.12 66




NCC Satellite Simultaneous Nadir Overpasses (SNOs) Prediction Service
